Weather in Lychevo

Russia / Ivanovo Oblast     56°30′55″N   40°02′24″E
temp.,
°C
wind,
m/s
gust,
m/s
humid.,
%
clouds,
%
prec.,
mm/h
press.,
hPa
HPBL,
m
28 september, tue
tue2800:00+6ne5988100 0.4 1025753
03:00+5ne4889100 0.5 1027631
06:00+5ne5889100 0.0 1029609
09:00+5ene598332 0.0 1030573
12:00+9ene46648 0.0 10311010
15:00+10ne455390 0.0 10321164
18:00+6ne336823 0.0 103338
21:00+4nne22775 0.0 103426
29 september, wed
wed2900:00+3n22835 0.0 103517
03:00+3nnw228731 0.0 103522
06:00+2nnw339197 0.0 103538
09:00+6n35759 0.0 1035263
12:00+10n346049 0.0 1035860
15:00+11n4460100 0.0 10331249
18:00+9n2570100 0.0 1034125
21:00+8nne227498 0.0 103426
30 september, thu
thu3000:00+8e0174100 0.0 103410
03:00+8wnw2274100 0.0 103429
06:00+7nw248482 0.0 1034108
09:00+8nw3579100 0.0 1035258
12:00+11nw347246 0.0 1034492
15:00+13nw33657 0.0 1034818
18:00+9nw33835 0.0 103436
21:00+7nw22905 0.0 103425
1 october, fri
fri100:00+7wnw22915 0.0 103424
03:00+6wnw34935 0.0 103558
06:00+6wnw35945 0.0 103582
09:00+9nw35805 0.0 1035249
12:00+13nw34665 0.0 1034740
15:00+14wnw346129 0.0 1033963
18:00+10wnw33785 0.0 103326
21:00+8wnw22855 0.0 103417
2 october, sat
sat200:00+7w22895 0.0 103417
03:00+6w22906 0.0 103411
06:00+6w229111 0.0 103411
09:00+9w227818 0.0 1034202
12:00+13wsw22635 0.0 1033737
15:00+14wsw22575 0.0 10331034
18:00+10sw22733 0.0 103310
21:00+8sw22800 0.0 103313